When you browse on this site, cookies collect data to enhance your experience and personalize the content and advertising you see.
Visit our Privacy Policy to learn more. By continuing to use the site, you agree to this use of cookies and data.
  • In Spain
  • List of Countries
  • For 7 days
  • Water Temperature
  • Satellite Maps
  • Weather Map
  • Weather Widgets
  • user-avatar
    Login

    Hourly Weather Salzburg

    Today, 20 April, Saturday

    Time Temperature Precipitation Wind Pressure Humidity
    00:00 +1°C° 0 mm 2 mps 632 mmHg 73%
    01:00 +1°C° 0 mm 2 mps 632 mmHg 72%
    02:00 +1°C° 0 mm 2 mps 631 mmHg 73%
    03:00 -1°C° 0 mm 2 mps 631 mmHg 74%
    04:00 -1°C° 0 mm 2 mps 631 mmHg 75%
    05:00 +1°C° 0 mm 2 mps 631 mmHg 72%
    06:00 +2°C° 0 mm 2 mps 632 mmHg 69%
    07:00 +4°C° 0 mm 2 mps 633 mmHg 62%
    08:00 +7°C° 0 mm 1 mps 633 mmHg 55%
    09:00 +10°C° 0 mm 1 mps 634 mmHg 47%
    10:00 +13°C° 0 mm 1 mps 635 mmHg 39%
    11:00 +14°C° 0 mm 1 mps 635 mmHg 36%
    12:00 +15°C° 0 mm 1 mps 635 mmHg 34%
    13:00 +16°C° 0 mm 1 mps 635 mmHg 32%
    14:00 +15°C° 0 mm 1 mps 635 mmHg 33%
    15:00 +15°C° 0 mm 1 mps 634 mmHg 34%
    16:00 +14°C° 0 mm 1 mps 634 mmHg 35%
    17:00 +11°C° 0 mm 1 mps 633 mmHg 46%
    18:00 +8°C° 0 mm 0 mps 631 mmHg 57%
    19:00 +5°C° 0 mm 0 mps 630 mmHg 68%
    20:00 +5°C° 0 mm 1 mps 630 mmHg 67%
    21:00 +4°C° 0 mm 1 mps 630 mmHg 67%
    22:00 +2°C° 0 mm 2 mps 630 mmHg 67%
    23:00 +2°C° 0 mm 2 mps 630 mmHg 68%

    Tomorrow, 21 April, Sunday

    Time Temperature Precipitation Wind Pressure Humidity
    00:00 +2°C° 0 mm 2 mps 630 mmHg 68%
    01:00 +1°C° 0 mm 2 mps 630 mmHg 68%
    02:00 +1°C° 0 mm 2 mps 629 mmHg 69%
    03:00 +1°C° 0 mm 2 mps 629 mmHg 70%
    04:00 +1°C° 0 mm 2 mps 629 mmHg 71%
    05:00 +3°C° 0 mm 1 mps 629 mmHg 67%
    06:00 +4°C° 0 mm 1 mps 629 mmHg 64%
    07:00 +6°C° 0 mm 1 mps 629 mmHg 60%
    08:00 +8°C° 0 mm 1 mps 630 mmHg 52%
    09:00 +11°C° 0 mm 1 mps 631 mmHg 43%
    10:00 +14°C° 0 mm 1 mps 632 mmHg 35%
    11:00 +15°C° 0 mm 1 mps 631 mmHg 34%
    12:00 +16°C° 0 mm 1 mps 631 mmHg 33%
    13:00 +18°C° 0 mm 1 mps 631 mmHg 31%
    14:00 +16°C° 0 mm 1 mps 631 mmHg 34%
    15:00 +15°C° 0 mm 1 mps 630 mmHg 36%
    16:00 +15°C° 0 mm 1 mps 629 mmHg 38%
    17:00 +12°C° 0 mm 1 mps 628 mmHg 50%
    18:00 +10°C° 0 mm 1 mps 627 mmHg 61%
    19:00 +7°C° 0 mm 1 mps 626 mmHg 73%
    20:00 +6°C° 0 mm 1 mps 626 mmHg 77%
    21:00 +4°C° 0 mm 2 mps 626 mmHg 81%
    22:00 +3°C° 0 mm 2 mps 626 mmHg 85%
    23:00 +3°C° 0 mm 2 mps 626 mmHg 86%

    Day after tomorrow, 22 April, Monday

    Time Temperature Precipitation Wind Pressure Humidity
    00:00 +3°C° 0 mm 2 mps 626 mmHg 88%
    01:00 +3°C° 0 mm 2 mps 625 mmHg 90%
    02:00 +2°C° 0 mm 2 mps 625 mmHg 90%
    03:00 +2°C° 0 mm 2 mps 624 mmHg 91%
    04:00 +2°C° 0 mm 2 mps 624 mmHg 91%
    05:00 +3°C° 0 mm 2 mps 624 mmHg 85%
    06:00 +4°C° 0 mm 2 mps 624 mmHg 79%
    07:00 +5°C° 0 mm 2 mps 624 mmHg 73%
    08:00 +9°C° 0 mm 1 mps 625 mmHg 62%
    09:00 +12°C° 0 mm 1 mps 625 mmHg 50%
    10:00 +15°C° 0 mm 1 mps 626 mmHg 38%
    11:00 +16°C° 0 mm 1 mps 626 mmHg 36%
    12:00 +18°C° 0 mm 1 mps 625 mmHg 33%
    13:00 +19°C° 0 mm 1 mps 625 mmHg 31%
    14:00 +18°C° 0 mm 1 mps 624 mmHg 33%
    15:00 +16°C° 0 mm 2 mps 624 mmHg 36%
    16:00 +16°C° 0 mm 2 mps 623 mmHg 38%
    17:00 +13°C° 0 mm 2 mps 622 mmHg 50%
    18:00 +9°C° 0 mm 2 mps 621 mmHg 62%
    19:00 +7°C° 0 mm 2 mps 619 mmHg 74%
    20:00 +6°C° 0 mm 2 mps 619 mmHg 76%
    21:00 +5°C° 0 mm 2 mps 619 mmHg 77%
    22:00 +3°C° 0 mm 3 mps 619 mmHg 79%
    23:00 +2°C° 0 mm 3 mps 618 mmHg 78%

    23 April, Tuesday

    Time Temperature Precipitation Wind Pressure Humidity
    00:00 +2°C° 0 mm 3 mps 618 mmHg 78%
    01:00 +2°C° 0 mm 3 mps 617 mmHg 77%
    02:00 +1°C° 0 mm 3 mps 617 mmHg 78%
    03:00 +1°C° 0 mm 3 mps 616 mmHg 80%
    04:00 +1°C° 0 mm 3 mps 616 mmHg 81%
    05:00 +2°C° 0 mm 3 mps 616 mmHg 77%
    06:00 +3°C° 0 mm 3 mps 617 mmHg 74%
    07:00 +4°C° 0 mm 3 mps 617 mmHg 71%
    08:00 +7°C° 0 mm 3 mps 617 mmHg 67%
    09:00 +8°C° 0 mm 3 mps 618 mmHg 63%
    10:00 +10°C° 0 mm 3 mps 618 mmHg 59%
    11:00 +11°C° 0 mm 3 mps 619 mmHg 54%
    12:00 +12°C° 0 mm 3 mps 619 mmHg 50%
    13:00 +13°C° 0 mm 3 mps 619 mmHg 46%
    14:00 +13°C° 0 mm 3 mps 619 mmHg 48%
    15:00 +12°C° 0 mm 3 mps 619 mmHg 50%
    16:00 +12°C° 0 mm 3 mps 618 mmHg 52%
    17:00 +10°C° 0 mm 3 mps 618 mmHg 59%
    18:00 +8°C° 0 mm 3 mps 617 mmHg 66%
    19:00 +5°C° 0 mm 3 mps 617 mmHg 74%
    20:00 +5°C° 0 mm 3 mps 617 mmHg 75%
    21:00 +4°C° 0 mm 3 mps 617 mmHg 77%
    22:00 +4°C° 0 mm 3 mps 618 mmHg 79%
    23:00 +4°C° 0 mm 3 mps 618 mmHg 81%

    24 April, Wednesday

    Time Temperature Precipitation Wind Pressure Humidity
    00:00 +3°C° 0 mm 3 mps 618 mmHg 82%
    01:00 +3°C° 0 mm 3 mps 618 mmHg 84%
    02:00 +3°C° 0 mm 3 mps 618 mmHg 85%
    03:00 +3°C° 0 mm 3 mps 618 mmHg 85%
    04:00 +3°C° 0 mm 3 mps 619 mmHg 85%
    05:00 +4°C° 0 mm 3 mps 619 mmHg 81%
    06:00 +5°C° 0 mm 3 mps 620 mmHg 78%
    07:00 +7°C° 0 mm 3 mps 621 mmHg 74%
    08:00 +9°C° 0 mm 3 mps 622 mmHg 66%
    09:00 +11°C° 0 mm 3 mps 623 mmHg 58%
    10:00 +13°C° 0 mm 3 mps 624 mmHg 50%
    11:00 +14°C° 0 mm 3 mps 624 mmHg 47%
    12:00 +16°C° 0 mm 3 mps 624 mmHg 44%
    13:00 +16°C° 0 mm 3 mps 625 mmHg 41%
    14:00 +16°C° 0 mm 3 mps 624 mmHg 43%
    15:00 +16°C° 0 mm 3 mps 624 mmHg 45%
    16:00 +14°C° 0 mm 3 mps 624 mmHg 47%
    17:00 +12°C° 0 mm 3 mps 623 mmHg 55%
    18:00 +10°C° 0 mm 3 mps 623 mmHg 63%
    19:00 +8°C° 0 mm 3 mps 622 mmHg 71%
    20:00 +7°C° 0 mm 3 mps 623 mmHg 73%
    21:00 +7°C° 0 mm 3 mps 623 mmHg 76%
    22:00 +5°C° 0 mm 3 mps 623 mmHg 78%
    23:00 +5°C° 0 mm 3 mps 624 mmHg 78%

    25 April, Thursday

    Time Temperature Precipitation Wind Pressure Humidity
    00:00 +5°C° 0 mm 3 mps 624 mmHg 78%
    01:00 +5°C° 0 mm 3 mps 624 mmHg 78%
    02:00 +5°C° 0 mm 2 mps 624 mmHg 81%
    03:00 +5°C° 0 mm 2 mps 624 mmHg 84%
    04:00 +4°C° 0 mm 2 mps 624 mmHg 87%
    05:00 +5°C° 0 mm 2 mps 625 mmHg 83%
    06:00 +6°C° 0 mm 2 mps 625 mmHg 79%
    07:00 +7°C° 0 mm 2 mps 625 mmHg 75%
    08:00 +9°C° 0 mm 3 mps 626 mmHg 68%
    09:00 +11°C° 0 mm 3 mps 626 mmHg 60%
    10:00 +13°C° 0 mm 3 mps 627 mmHg 52%
    11:00 +14°C° 0 mm 3 mps 627 mmHg 50%
    12:00 +14°C° 0 mm 3 mps 627 mmHg 47%
    13:00 +15°C° 0 mm 4 mps 627 mmHg 45%
    14:00 +14°C° 0 mm 4 mps 626 mmHg 46%
    15:00 +14°C° 0 mm 3 mps 626 mmHg 48%
    16:00 +14°C° 0 mm 3 mps 626 mmHg 49%
    17:00 +12°C° 0 mm 3 mps 625 mmHg 57%
    18:00 +10°C° 0 mm 3 mps 624 mmHg 64%
    19:00 +8°C° 0 mm 3 mps 623 mmHg 72%
    20:00 +8°C° 0 mm 3 mps 623 mmHg 75%
    21:00 +7°C° 0 mm 3 mps 623 mmHg 78%
    22:00 +5°C° 0 mm 3 mps 623 mmHg 81%
    23:00 +5°C° 0 mm 3 mps 623 mmHg 81%
    Show more